Regional Weather Roundup
Issued by NWS San Diego, CA

Home | Current Version | Previous Version | Text Only | Print | Product List | Glossary On
Versions: 1 2 3 4 5 6 7 8 9 10 11 12 13 14 15 16 17 18 19 20 21 22 23 24 25 26 27 28 29 30 31 32 33 34 35 36 37 38 39 40 41 42 43 44 45 46 47 48 49 50
000
ASUS46 KSGX 210910
RWRSGX

SAN DIEGO HOURLY WEATHER ROUNDUP
NATIONAL WEATHER SERVICE SAN DIEGO CA
200 AM PDT THU AUG 21 2014

NOTE: "FAIR" INDICATES FEW OR NO CLOUDS BELOW 12,000 FEET WITH NO
SIGNIFICANT WEATHER AND/OR OBSTRUCTIONS TO VISIBILITY.

CAZ042-043-060-061-PZZ750-775-211000-

GREATER SAN DIEGO AREA

CITY           SKY/WX    TMP DP  RH WIND       PRES   REMARKS
LINDBERGH FLD  CLOUDY    70  62  76 W6        29.94F
POINT LOMA       N/A     68  63  83 NW8         N/A
NATIONAL CITY    N/A     70  64  81 N3        29.93F
CHULA VISTA      N/A     69  64  85 CALM      29.86F
IMPERIAL BEACH CLOUDY    70  64  81 NW7       29.93S
BROWN FIELD    MOCLDY    67  61  81 CALM      29.94S
MIRAMAR MCAS   MOCLDY    68  61  78 N5        29.93F
MONTGOMERY FLD CLOUDY    69  62  78 NW5       29.94F

$$

NORTH SAN DIEGO COUNTY

CITY           SKY/WX    TMP DP  RH WIND       PRES   REMARKS
CAMP PENDLETON CLEAR     63  59  87 NE3       29.93R
OCEANSIDE AP   CLOUDY    68  62  81 CALM      29.92S
VISTA            N/A     65  60  86 CALM      29.91F
CARLSBAD       CLOUDY    69  63  81 CALM      29.92F
DEL MAR          N/A     69  65  88 CALM      29.95F
LA JOLLA SCRIP   N/A     68  65  89 CALM      29.90F
FALLBROOK        N/A     64  64 100 CALM      29.94R
ESCONDIDO        N/A     67  63  87 CALM      29.95S
SAN MARCOS       N/A     66  62  85 CALM      29.91S
POWAY            N/A     65  61  85 CALM      29.94S
R. PENASQUITOS   N/A     67  63  86 CALM      29.93F

$$

EAST SAN DIEGO COUNTY

CITY           SKY/WX    TMP DP  RH WIND       PRES   REMARKS
RAMONA         PTCLDY    60  58  92 W3        29.95F
SANTEE LAKES     N/A     65  62  88 CALM      29.94S
GILLESPIE FLD  FAIR      66  63  88 CALM      29.95F
LA MESA          N/A     67  64  89 CALM      29.87F
JAMUL            N/A     64  61  91 CALM      29.91F
DESCANSO N       N/A     61  50  69 E1        29.79F
MT. LAGUNA OBS   N/A     57  47  68 S3        29.72F
CAMPO            N/A     60  53  77 NE3       29.96S

$$

ORANGE COUNTY AND THE LOS ANGELES BASIN

CITY           SKY/WX    TMP DP  RH WIND       PRES   REMARKS
JOHN WAYNE AP  CLEAR     71  61  70 CALM      29.92S
LAGUNA BEACH     N/A     65  61  85 CALM      29.88F
LAKE FOREST FR   N/A     64  58  82 CALM      29.82F
SANTA ANA        N/A     67  62  84 CALM      29.87F
HUNTINGTON BCH   N/A     65  63  90 W2        29.93F
LOS ALAMITOS   FAIR      67  61  81 W2        29.92F
FULLERTON      CLEAR     68  60  75 CALM      29.91F
LONG BEACH     CLEAR     68  61  78 NW3       29.92S
L.A. AP        CLEAR     67  60  78 W7        29.93S
L.A. DOWNTOWN  CLEAR     67  60  78 CALM      29.92S

$$

THE INLAND EMPIRE

CITY           SKY/WX    TMP DP  RH WIND       PRES   REMARKS
CHINO          CLEAR     66  61  84 MISG      29.94F
ONTARIO        PTCLDY    68  60  75 CALM      29.93S
RIVERSIDE AP   CLEAR     67  60  78 CALM      29.94S
RIV CYN CREST    N/A     66  66 100 CALM      29.92R
MORENO VALLEY    N/A     64  63  97 CALM      29.14S
MARCH ARB      PTCLDY    64  63  97 NW2       29.96S
HORSETHIEF CYN   N/A     64  55  72 CALM      29.95R
PERRIS           N/A     65  61  89 CALM      29.95R
MENIFEE          N/A     65  62  90 CALM      30.01S
HEMET EAST       N/A     63  56  79 CALM      29.94R
FRENCH VALLEY  FAIR      63  59  88 SE3       29.96S
TEMECULA         N/A     64  62  93 S1        29.94R

$$

SAN BERNARDINO AND RIVERSIDE COUNTY MOUNTAINS

CITY           SKY/WX    TMP DP  RH WIND       PRES   REMARKS
BIG BEAR AP    CLEAR     43  37  81 CALM      30.21S
BIG BEAR SHEA    N/A     44  37  75 CALM      29.99R
ANGELUS OAKS     N/A     54  43  67 CALM      29.84S
PINE COVE        N/A     57  46  66 CALM      29.81S

$$

SOUTHERN DESERT INCLUDING THE COACHELLA VALLEY

CITY           SKY/WX    TMP DP  RH WIND       PRES   REMARKS
PALM SPRINGS   CLEAR     82  55  39 NW10      29.84S
THOUSAND PALMS   N/A     83  53  35 NW10      29.79S
PALM DESERT      N/A     79  57  46 CALM        N/A
THERMAL        PTCLDY    83  55  38 N6        29.77S
BLYTHE         CLOUDY    81  69  67 NE3       29.81S
IMPERIAL AP    CLEAR     84  53  34 N3        29.78S
EL CENTRO NAS  CLEAR     82  51  34 NW6       29.78S
YUMA AZ        CLOUDY    86  66  51 SE6       29.81S

$$

UPPER DESERT

CITY           SKY/WX    TMP DP  RH WIND       PRES   REMARKS
VICTORVILLE AP CLEAR     66  46  48 S3        29.99F
HESPERIA         N/A     65  54  67 CALM      29.99S
APPLE VALLEY     N/A     66  51  59 CALM      30.06S
GRAY BUTTE AP  FAIR      65  43  45 E3        29.99S
PALMDALE       CLEAR     68  49  50 S8        29.97F
LANCASTER      CLEAR     68  45  43 W8        29.96S
EDWARDS AFB    CLEAR     67  49  51 SE5       29.94S
DAGGETT        CLEAR     74  52  46 W13       29.92F
29 PALMS N     CLEAR     74  49  41 W7        29.98S
NEEDLES        CLOUDY    88  53  30 CALM      29.85R

$$

REGIONAL REPORTS

CITY           SKY/WX    TMP DP  RH WIND       PRES   REMARKS
SANTA BARBARA  CLEAR     63  57  81 CALM      29.92S
SANDBERG       CLEAR     64  42  44 W6        30.08F
MT. WILSON       N/A     59  48  67 MISG        N/A
LAS VEGAS NV   PTCLDY    78  51  38 SW5       29.87F
PHOENIX AZ     CLOUDY    84  59  42 S5        29.86S
TIJUANA        CLOUDY    66  59  77 NW8       29.96S
ENSENADA NW      N/A     69  32  25 S1        29.90S

$$

OFFSHORE ISLANDS

CITY           SKY/WX    TMP DP  RH WIND       PRES   REMARKS
CATALINA ARPT  CLOUDY    60  58  92 SW6       29.96S FOG
SAN NICOLAS IS CLEAR    N/A N/A N/A SW3       29.94S

$$

MARINE AND OFFSHORE BUOY REPORTS

STATION/POSITION SKY/WX   TEMP    WIND        PRES    SWELL
                          AIR SEA DIR/SP/G            HT/PER/DIR
                          (F)     (DEG/KT/KT) (MB)    (FT/S/D)
TANNER BANKS               66 68  280/  4/  8 1013.9F   5/310/ 8
S CLEMENTE BASIN           67 70  280/  6/  8 1013.4F   3/190/11
SAN NICOLAS IS.               65                N/A     2/200/14
SO. S. ROSA ISLA           64 66  310/ 10/ 12 1013.0F   3/14
W. S. BARBARA CH           62 61  330/ 12/ 14 1012.4S   3/310/ 9
S. MONICA BASIN            66 72  290/  2/  4 1013.0F   3/200/14
S PEDRO CHANNEL               70                N/A     2/170/12
DANA POINT                    71                N/A     2/190/13
CMP PENDLETON NS              73                N/A     2/220/15
OCEANSIDE OFFSHR              73                N/A     2/210/14
TORREY PINES OTR              73                N/A     2/210/13
LA JOLLA 1                 70 72  320/  4/  5 1013.4F
MISSION BAY BUOY              68                N/A     2/210/15
SAN DIEGO BAY                 75              1013.9S
POINT LOMA SOUTH              73                N/A     2/170/11

$$



USA.gov is the U.S. government's official web portal to all federal, state and local government web resources and services.